HYLAS 1

Last updated on Thu Jul 03 2025 00:02:45 GMT+0000 (Coordinated Universal Time)

1 37237U 10065A 25183.47210966 .00000030 00000+0 00000+0 0 9999 2 37237 4.7546 77.3436 0000716 311.2808 298.7335 1.00273244 3370
UTC large
Height (km)
Speed (km/s)
/
Latitude / Longitude
Inclination (degrees)
Orbital Period (minutes)
Azimuth
Elevation
Range (km)
Doppler Factor

Next 0 passes for location: London (51.5072 / 0.1276)

Sorry there are no passes over London.